• In Portugal
  • List of Countries
  • For 7 days
  • Water Temperature
  • Satellite Maps
  • Weather Map
  • Weather Widgets
  • user-avatar
    Login

    Hourly Weather Akaba

    Today, 16 July, Monday

    Time Temperature Precipitation Wind Pressure Humidity
    00:00 +34°C° 0 mm 2 mps 743 mmHg 36%
    01:00 +32°C° 0 mm 1 mps 743 mmHg 37%
    02:00 +31°C° 0 mm 1 mps 743 mmHg 38%
    03:00 +31°C° 0 mm 1 mps 743 mmHg 39%
    04:00 +30°C° 0 mm 1 mps 743 mmHg 40%
    05:00 +30°C° 0 mm 1 mps 743 mmHg 41%
    06:00 +31°C° 0 mm 1 mps 743 mmHg 40%
    07:00 +32°C° 0 mm 1 mps 744 mmHg 38%
    08:00 +33°C° 0 mm 1 mps 744 mmHg 36%
    09:00 +34°C° 0 mm 1 mps 744 mmHg 33%
    10:00 +37°C° 0 mm 2 mps 744 mmHg 30%
    11:00 +38°C° 0 mm 2 mps 743 mmHg 27%
    12:00 +38°C° 0 mm 2 mps 743 mmHg 25%
    13:00 +39°C° 0 mm 3 mps 743 mmHg 23%
    14:00 +40°C° 0 mm 3 mps 743 mmHg 21%
    15:00 +40°C° 0 mm 3 mps 742 mmHg 21%
    16:00 +41°C° 0 mm 4 mps 742 mmHg 21%
    17:00 +41°C° 0 mm 4 mps 742 mmHg 20%
    18:00 +40°C° 0 mm 4 mps 742 mmHg 23%
    19:00 +38°C° 0 mm 4 mps 743 mmHg 25%
    20:00 +37°C° 0 mm 3 mps 743 mmHg 28%
    21:00 +36°C° 0 mm 3 mps 744 mmHg 30%
    22:00 +35°C° 0 mm 2 mps 744 mmHg 33%
    23:00 +35°C° 0 mm 2 mps 744 mmHg 35%

    Tomorrow, 17 July, Tuesday

    Time Temperature Precipitation Wind Pressure Humidity
    00:00 +34°C° 0 mm 2 mps 744 mmHg 37%
    01:00 +32°C° 0 mm 1 mps 744 mmHg 39%
    02:00 +32°C° 0 mm 1 mps 744 mmHg 40%
    03:00 +31°C° 0 mm 1 mps 744 mmHg 42%
    04:00 +31°C° 0 mm 2 mps 744 mmHg 43%
    05:00 +30°C° 0 mm 2 mps 744 mmHg 44%
    06:00 +31°C° 0 mm 2 mps 744 mmHg 42%
    07:00 +32°C° 0 mm 2 mps 744 mmHg 40%
    08:00 +34°C° 0 mm 2 mps 744 mmHg 37%
    09:00 +35°C° 0 mm 2 mps 744 mmHg 34%
    10:00 +37°C° 0 mm 2 mps 744 mmHg 32%
    11:00 +38°C° 0 mm 2 mps 744 mmHg 29%
    12:00 +39°C° 0 mm 3 mps 743 mmHg 27%
    13:00 +40°C° 0 mm 3 mps 743 mmHg 25%
    14:00 +40°C° 0 mm 3 mps 742 mmHg 23%
    15:00 +41°C° 0 mm 4 mps 742 mmHg 22%
    16:00 +41°C° 0 mm 4 mps 742 mmHg 22%
    17:00 +41°C° 0 mm 5 mps 741 mmHg 22%
    18:00 +40°C° 0 mm 4 mps 742 mmHg 24%
    19:00 +38°C° 0 mm 4 mps 742 mmHg 26%
    20:00 +37°C° 0 mm 4 mps 743 mmHg 28%
    21:00 +36°C° 0 mm 4 mps 743 mmHg 30%
    22:00 +36°C° 0 mm 3 mps 743 mmHg 33%
    23:00 +35°C° 0 mm 2 mps 744 mmHg 35%

    Day after tomorrow, 18 July, Wednesday

    Time Temperature Precipitation Wind Pressure Humidity
    00:00 +34°C° 0 mm 2 mps 743 mmHg 37%
    01:00 +32°C° 0 mm 2 mps 743 mmHg 38%
    02:00 +32°C° 0 mm 2 mps 743 mmHg 40%
    03:00 +31°C° 0 mm 2 mps 743 mmHg 41%
    04:00 +31°C° 0 mm 2 mps 743 mmHg 42%
    05:00 +30°C° 0 mm 2 mps 743 mmHg 43%
    06:00 +31°C° 0 mm 2 mps 744 mmHg 38%
    07:00 +32°C° 0 mm 2 mps 744 mmHg 33%
    08:00 +34°C° 0 mm 2 mps 744 mmHg 28%
    09:00 +36°C° 0 mm 2 mps 744 mmHg 24%
    10:00 +37°C° 0 mm 2 mps 744 mmHg 20%
    11:00 +39°C° 0 mm 2 mps 744 mmHg 16%
    12:00 +39°C° 0 mm 3 mps 743 mmHg 15%
    13:00 +40°C° 0 mm 3 mps 743 mmHg 14%
    14:00 +42°C° 0 mm 4 mps 743 mmHg 14%
    15:00 +42°C° 0 mm 4 mps 742 mmHg 14%
    16:00 +42°C° 0 mm 4 mps 742 mmHg 14%
    17:00 +42°C° 0 mm 4 mps 742 mmHg 15%
    18:00 +41°C° 0 mm 4 mps 743 mmHg 17%
    19:00 +39°C° 0 mm 3 mps 743 mmHg 20%
    20:00 +38°C° 0 mm 3 mps 744 mmHg 23%
    21:00 +37°C° 0 mm 3 mps 744 mmHg 27%
    22:00 +36°C° 0 mm 3 mps 744 mmHg 30%
    23:00 +35°C° 0 mm 2 mps 744 mmHg 33%

    19 July, Thursday

    Time Temperature Precipitation Wind Pressure Humidity
    00:00 +34°C° 0 mm 2 mps 744 mmHg 35%
    01:00 +34°C° 0 mm 2 mps 744 mmHg 37%
    02:00 +32°C° 0 mm 2 mps 744 mmHg 39%
    03:00 +31°C° 0 mm 2 mps 744 mmHg 40%
    04:00 +31°C° 0 mm 2 mps 744 mmHg 40%
    05:00 +30°C° 0 mm 2 mps 744 mmHg 40%
    06:00 +32°C° 0 mm 2 mps 744 mmHg 36%
    07:00 +33°C° 0 mm 1 mps 745 mmHg 31%
    08:00 +34°C° 0 mm 1 mps 745 mmHg 26%
    09:00 +37°C° 0 mm 2 mps 745 mmHg 23%
    10:00 +38°C° 0 mm 2 mps 744 mmHg 20%
    11:00 +40°C° 0 mm 2 mps 744 mmHg 17%
    12:00 +41°C° 0 mm 2 mps 744 mmHg 16%
    13:00 +43°C° 0 mm 3 mps 743 mmHg 15%
    14:00 +43°C° 0 mm 3 mps 743 mmHg 14%
    15:00 +43°C° 0 mm 3 mps 743 mmHg 14%
    16:00 +43°C° 0 mm 3 mps 743 mmHg 15%
    17:00 +43°C° 0 mm 3 mps 743 mmHg 15%
    18:00 +42°C° 0 mm 3 mps 743 mmHg 17%
    19:00 +40°C° 0 mm 3 mps 744 mmHg 18%
    20:00 +38°C° 0 mm 3 mps 744 mmHg 20%
    21:00 +37°C° 0 mm 2 mps 744 mmHg 22%
    22:00 +37°C° 0 mm 2 mps 744 mmHg 24%
    23:00 +36°C° 0 mm 2 mps 745 mmHg 26%

    20 July, Friday

    Time Temperature Precipitation Wind Pressure Humidity
    00:00 +35°C° 0 mm 2 mps 744 mmHg 28%
    01:00 +35°C° 0 mm 2 mps 744 mmHg 31%
    02:00 +34°C° 0 mm 2 mps 744 mmHg 33%
    03:00 +32°C° 0 mm 2 mps 744 mmHg 36%
    04:00 +32°C° 0 mm 2 mps 745 mmHg 39%
    05:00 +31°C° 0 mm 2 mps 745 mmHg 42%
    06:00 +32°C° 0 mm 2 mps 745 mmHg 40%
    07:00 +34°C° 0 mm 2 mps 745 mmHg 38%
    08:00 +35°C° 0 mm 2 mps 745 mmHg 36%
    09:00 +37°C° 0 mm 2 mps 745 mmHg 32%
    10:00 +38°C° 0 mm 2 mps 745 mmHg 29%
    11:00 +39°C° 0 mm 2 mps 745 mmHg 25%
    12:00 +40°C° 0 mm 3 mps 744 mmHg 24%
    13:00 +42°C° 0 mm 3 mps 744 mmHg 22%
    14:00 +43°C° 0 mm 4 mps 743 mmHg 21%
    15:00 +43°C° 0 mm 4 mps 743 mmHg 21%
    16:00 +42°C° 0 mm 5 mps 743 mmHg 21%
    17:00 +42°C° 0 mm 5 mps 743 mmHg 21%
    18:00 +41°C° 0 mm 5 mps 744 mmHg 24%
    19:00 +40°C° 0 mm 4 mps 744 mmHg 26%
    20:00 +37°C° 0 mm 4 mps 744 mmHg 29%
    21:00 +36°C° 0 mm 4 mps 745 mmHg 32%
    22:00 +35°C° 0 mm 4 mps 745 mmHg 35%
    23:00 +34°C° 0 mm 3 mps 745 mmHg 38%

    21 July, Saturday

    Time Temperature Precipitation Wind Pressure Humidity
    00:00 +34°C° 0 mm 3 mps 745 mmHg 40%
    01:00 +33°C° 0 mm 3 mps 745 mmHg 41%
    02:00 +31°C° 0 mm 3 mps 744 mmHg 43%
    03:00 +31°C° 0 mm 3 mps 745 mmHg 45%
    04:00 +30°C° 0 mm 3 mps 745 mmHg 46%
    05:00 +29°C° 0 mm 2 mps 745 mmHg 48%
    06:00 +30°C° 0 mm 2 mps 745 mmHg 44%
    07:00 +31°C° 0 mm 2 mps 745 mmHg 41%
    08:00 +32°C° 0 mm 2 mps 745 mmHg 37%
    09:00 +34°C° 0 mm 3 mps 745 mmHg 33%
    10:00 +36°C° 0 mm 3 mps 745 mmHg 28%
    11:00 +37°C° 0 mm 3 mps 744 mmHg 24%
    12:00 +38°C° 0 mm 4 mps 744 mmHg 22%
    13:00 +40°C° 0 mm 4 mps 744 mmHg 20%
    14:00 +41°C° 0 mm 4 mps 743 mmHg 19%
    15:00 +41°C° 0 mm 5 mps 743 mmHg 19%
    16:00 +40°C° 0 mm 5 mps 743 mmHg 20%
    17:00 +40°C° 0 mm 5 mps 743 mmHg 20%
    18:00 +39°C° 0 mm 5 mps 743 mmHg 24%
    19:00 +37°C° 0 mm 5 mps 743 mmHg 27%
    20:00 +36°C° 0 mm 5 mps 744 mmHg 31%
    21:00 +35°C° 0 mm 4 mps 744 mmHg 33%
    22:00 +34°C° 0 mm 3 mps 744 mmHg 36%
    23:00 +33°C° 0 mm 3 mps 744 mmHg 39%
    Show more